{"data":{"norad_id":63889,"epoch":"2026-05-25T03:11:07.878912Z","epoch_age_seconds":63745,"freshness":"FRESH","line1":"1 63889U 25094AB  26145.13273008  .00003097  00000+0  26717-3 0  9990","line2":"2 63889  70.0023  41.6894 0002665 269.3083  90.7771 14.98337801 58873","mean_motion":14.98337801,"eccentricity":0.0002665,"inclination_deg":70.0023,"raan_deg":41.6894,"arg_perigee_deg":269.3083,"mean_anomaly_deg":90.7771,"bstar":0.00026717,"rev_number":5887,"period_min":96.106498750745,"perigee_km":570.17954712366,"apogee_km":573.88398707652,"semimajor_km":6950.1687671001,"source":"CELESTRAK","updated_at":"2026-05-25T13:38:20.174539Z"}}